Location: *
(43.4667°N, 11.6833°E)
Time: 07:17:12
(UTC+00:00)

Lacrosse 4 Rocket - Pass Details

Date: 19 July 2019
Orbit: 541 x 618 km, 68.0° (Epoch: 21 August)

Event Time Altitude Azimuth Distance (km) Brightness Sun altitude
Exits shadow 22:45:44 43° 68° (ENE) 875 2.3 -25.3°
Drops below altitude 10° 22:49:01 10° 38° (NE) 1,975 4.7 -25.4°
Sets 22:51:18 0° 34° (NE) 2,876 5.7 -25.4°
